Wetterdaten: Mittwoch, 01.01.2014
Datum Zeit Temperatur Luftfeuchte Luftdruck Regen Wind Richtung Richtung Taupunkt Windchill Windben
01.01.2014 00:00 -5,4 C 67 % 1015,1 hPa 0,0 l/m 0,6 km/h (0 Bft) O-NO 67 -10,5 C -5,7 C 0,0 km/h (0 Bft)
01.01.2014 00:05 -5,3 C 67 % 1015,0 hPa 0,0 l/m 0,6 km/h (0 Bft) O-NO 67 -10,4 C -5,7 C 1,9 km/h (1 Bft)
01.01.2014 00:10 -5,0 C 67 % 1015,0 hPa 0,0 l/m 0,5 km/h (0 Bft) O-NO 67 -10,2 C -5,4 C 0,0 km/h (0 Bft)
01.01.2014 00:15 -5,1 C 67 % 1015,0 hPa 0,0 l/m 0,8 km/h (0 Bft) O-NO 67 -10,2 C -5,2 C 0,0 km/h (0 Bft)
01.01.2014 00:20 -5,2 C 67 % 1015,0 hPa 0,0 l/m 1,3 km/h (1 Bft) O-NO 67 -10,3 C -5,0 C 1,9 km/h (1 Bft)
01.01.2014 00:25 -5,4 C 67 % 1014,9 hPa 0,0 l/m 1,0 km/h (0 Bft) O-NO 67 -10,5 C -5,0 C 4,3 km/h (1 Bft)
01.01.2014 00:30 -6,0 C 68 % 1014,9 hPa 0,0 l/m 1,0 km/h (0 Bft) N 360 -10,9 C -5,3 C 1,8 km/h (1 Bft)
01.01.2014 00:35 -6,0 C 68 % 1014,9 hPa 0,0 l/m 1,0 km/h (0 Bft) NO 45 -10,9 C -5,6 C 0,0 km/h (0 Bft)
01.01.2014 00:40 -6,0 C 69 % 1014,9 hPa 0,0 l/m 0,5 km/h (0 Bft) N 360 -10,7 C -5,9 C 0,0 km/h (0 Bft)
01.01.2014 00:45 -6,2 C 69 % 1014,8 hPa 0,0 l/m 0,0 km/h (0 Bft) N-NO 22 -10,9 C -6,0 C 0,0 km/h (0 Bft)
01.01.2014 00:48 -6,0 C 69 % 1014,8 hPa 0,0 l/m 0,2 km/h (0 Bft) N 360 -10,7 C -6,0 C 0,0 km/h (0 Bft)
01.01.2014 00:50 -6,0 C 69 % 1014,8 hPa 0,0 l/m 0,2 km/h (0 Bft) N 360 -10,7 C -6,0 C 0,0 km/h (0 Bft)
01.01.2014 00:55 -6,0 C 69 % 1014,8 hPa 0,0 l/m 0,2 km/h (0 Bft) N-NO 22 -10,7 C -6,0 C 0,0 km/h (0 Bft)
01.01.2014 01:00 -5,8 C 69 % 1014,8 hPa 0,0 l/m 0,5 km/h (0 Bft) SO 135 -10,6 C -6,0 C 4,2 km/h (1 Bft)
01.01.2014 01:05 -5,4 C 69 % 1014,8 hPa 0,0 l/m 1,1 km/h (1 Bft) O-SO 112 -10,2 C -5,7 C 2,6 km/h (1 Bft)
01.01.2014 01:10 -4,5 C 68 % 1014,8 hPa 0,0 l/m 1,9 km/h (1 Bft) O-SO 112 -9,5 C -5,2 C 5,8 km/h (2 Bft)
01.01.2014 01:15 -4,2 C 67 % 1014,8 hPa 0,0 l/m 1,9 km/h (1 Bft) O-SO 112 -9,4 C -4,8 C 3,2 km/h (1 Bft)
01.01.2014 01:20 -3,2 C 63 % 1014,8 hPa 0,0 l/m 3,1 km/h (1 Bft) S-SO 157 -9,2 C -5,1 C 6,4 km/h (2 Bft)
01.01.2014 01:25 -3,8 C 62 % 1014,8 hPa 0,0 l/m 2,4 km/h (1 Bft) S-SO 157 -10,0 C -4,2 C 0,0 km/h (0 Bft)
01.01.2014 01:30 -3,3 C 59 % 1014,8 hPa 0,0 l/m 2,7 km/h (1 Bft) SO 135 -10,1 C -4,4 C 7,6 km/h (2 Bft)
01.01.2014 01:35 -2,5 C 58 % 1014,8 hPa 0,0 l/m 3,7 km/h (1 Bft) O-NO 67 -9,6 C -4,5 C 2,6 km/h (1 Bft)
01.01.2014 01:40 -3,9 C 59 % 1014,8 hPa 0,0 l/m 2,3 km/h (1 Bft) NO 45 -10,7 C -3,4 C 0,0 km/h (0 Bft)
01.01.2014 01:45 -4,5 C 59 % 1014,8 hPa 0,0 l/m 1,1 km/h (1 Bft) O 90 -11,3 C -3,6 C 3,7 km/h (1 Bft)
01.01.2014 01:50 -4,2 C 59 % 1014,8 hPa 0,0 l/m 1,4 km/h (1 Bft) W-SW 247 -11,0 C -4,1 C 0,0 km/h (0 Bft)
01.01.2014 01:55 -4,6 C 60 % 1014,8 hPa 0,0 l/m 1,4 km/h (1 Bft) N 360 -11,2 C -4,5 C 3,5 km/h (1 Bft)
01.01.2014 02:00 -4,9 C 62 % 1014,8 hPa 0,0 l/m 1,0 km/h (0 Bft) S-SW 202 -11,0 C -4,6 C 3,7 km/h (1 Bft)
01.01.2014 02:05 -5,0 C 63 % 1014,7 hPa 0,0 l/m 1,8 km/h (1 Bft) W-SW 247 -10,9 C -4,8 C 2,6 km/h (1 Bft)
01.01.2014 02:10 -4,6 C 63 % 1014,7 hPa 0,0 l/m 2,6 km/h (1 Bft) O 90 -10,5 C -5,8 C 6,4 km/h (2 Bft)
01.01.2014 02:15 -3,9 C 62 % 1014,7 hPa 0,0 l/m 2,6 km/h (1 Bft) NO 45 -10,1 C -5,3 C 0,0 km/h (0 Bft)
01.01.2014 02:20 -3,7 C 62 % 1014,7 hPa 0,0 l/m 2,9 km/h (1 Bft) O-SO 112 -9,9 C -5,3 C 3,2 km/h (1 Bft)
01.01.2014 02:25 -4,2 C 61 % 1015,1 hPa 0,0 l/m 2,7 km/h (1 Bft) NO 45 -10,6 C -5,2 C 6,1 km/h (2 Bft)
01.01.2014 02:30 -3,2 C 59 % 1015,1 hPa 0,0 l/m 4,0 km/h (1 Bft) W-SW 247 -10,0 C -5,8 C 5,5 km/h (1 Bft)
01.01.2014 02:35 -4,3 C 59 % 1015,1 hPa 0,0 l/m 4,0 km/h (1 Bft) NO 45 -11,1 C -6,1 C 4,7 km/h (1 Bft)
01.01.2014 02:40 -4,3 C 60 % 1015,1 hPa 0,0 l/m 2,9 km/h (1 Bft) S-SW 202 -10,9 C -5,3 C 1,8 km/h (1 Bft)
01.01.2014 02:45 -5,0 C 61 % 1015,1 hPa 0,0 l/m 2,6 km/h (1 Bft) S-SO 157 -11,3 C -5,3 C 2,1 km/h (1 Bft)
01.01.2014 02:50 -4,5 C 62 % 1015,1 hPa 0,0 l/m 2,4 km/h (1 Bft) O-NO 67 -10,7 C -5,5 C 0,0 km/h (0 Bft)
01.01.2014 02:55 -3,9 C 62 % 1015,1 hPa 0,0 l/m 2,6 km/h (1 Bft) O-NO 67 -10,1 C -5,4 C 1,6 km/h (1 Bft)
01.01.2014 03:00 -3,4 C 62 % 1015,1 hPa 0,0 l/m 1,4 km/h (1 Bft) O-NO 67 -9,6 C -4,5 C 2,6 km/h (1 Bft)
01.01.2014 03:05 -2,4 C 59 % 1015,4 hPa 0,0 l/m 2,3 km/h (1 Bft) NO 45 -9,3 C -4,6 C 6,4 km/h (2 Bft)
01.01.2014 03:10 -3,1 C 57 % 1015,4 hPa 0,0 l/m 3,4 km/h (1 Bft) S 180 -10,4 C -4,8 C 3,4 km/h (1 Bft)
01.01.2014 03:15 -4,5 C 58 % 1015,4 hPa 0,0 l/m 3,5 km/h (1 Bft) S-SO 157 -11,5 C -5,1 C 2,4 km/h (1 Bft)
01.01.2014 03:20 -2,1 C 57 % 1015,4 hPa 0,0 l/m 6,4 km/h (2 Bft) S-SO 157 -9,4 C -5,0 C 18,0 km/h (3 Bft)
01.01.2014 03:25 -1,1 C 55 % 1016,1 hPa 0,0 l/m 9,2 km/h (2 Bft) S-SO 157 -9,0 C -7,9 C 9,7 km/h (2 Bft)
01.01.2014 03:30 -1,0 C 53 % 1016,1 hPa 0,0 l/m 9,3 km/h (2 Bft) S 180 -9,3 C -7,0 C 18,8 km/h (3 Bft)
01.01.2014 03:35 -1,3 C 54 % 1016,1 hPa 0,0 l/m 8,7 km/h (2 Bft) O-SO 112 -9,4 C -6,1 C 7,2 km/h (2 Bft)
01.01.2014 03:40 -1,4 C 54 % 1016,1 hPa 0,0 l/m 7,2 km/h (2 Bft) S 180 -9,5 C -4,1 C 4,5 km/h (1 Bft)
01.01.2014 03:45 -1,7 C 54 % 1016,1 hPa 0,0 l/m 6,1 km/h (2 Bft) S 180 -9,8 C -2,9 C 6,8 km/h (2 Bft)
01.01.2014 03:50 -0,6 C 53 % 1016,1 hPa 0,0 l/m 4,7 km/h (1 Bft) O-SO 112 -9,0 C -2,6 C 6,1 km/h (2 Bft)
01.01.2014 03:55 -0,1 C 51 % 1016,1 hPa 0,0 l/m 4,7 km/h (1 Bft) SO 135 -9,0 C -2,4 C 9,3 km/h (2 Bft)
01.01.2014 04:00 0,1 C 51 % 1016,1 hPa 0,0 l/m 5,8 km/h (2 Bft) O 90 -8,8 C -2,5 C 7,4 km/h (2 Bft)
01.01.2014 04:05 0,4 C 51 % 1016,0 hPa 0,0 l/m 6,3 km/h (2 Bft) O-SO 112 -8,5 C -2,3 C 6,6 km/h (2 Bft)
01.01.2014 04:10 -0,1 C 51 % 1016,0 hPa 0,0 l/m 6,1 km/h (2 Bft) O-SO 112 -9,0 C -1,9 C 6,6 km/h (2 Bft)
01.01.2014 04:15 0,0 C 51 % 1016,0 hPa 0,0 l/m 6,4 km/h (2 Bft) O 90 -8,9 C -2,1 C 8,4 km/h (2 Bft)
01.01.2014 04:20 0,0 C 52 % 1016,0 hPa 0,0 l/m 7,1 km/h (2 Bft) O-SO 112 -8,7 C -2,7 C 7,7 km/h (2 Bft)
01.01.2014 04:25 0,2 C 52 % 1015,8 hPa 0,0 l/m 7,1 km/h (2 Bft) O-SO 112 -8,5 C -2,5 C 8,2 km/h (2 Bft)
01.01.2014 04:30 0,6 C 51 % 1015,8 hPa 0,0 l/m 6,4 km/h (2 Bft) O 90 -8,3 C -1,4 C 6,9 km/h (2 Bft)
01.01.2014 04:35 0,6 C 50 % 1015,8 hPa 0,0 l/m 5,6 km/h (1 Bft) O-SO 112 -8,6 C -1,1 C 6,1 km/h (2 Bft)
01.01.2014 04:40 0,4 C 51 % 1015,8 hPa 0,0 l/m 4,0 km/h (1 Bft) S-SO 157 -8,5 C -0,8 C 1,6 km/h (1 Bft)
01.01.2014 04:45 -1,5 C 52 % 1016,0 hPa 0,0 l/m 2,6 km/h (1 Bft) O 90 -10,0 C -0,8 C 0,0 km/h (0 Bft)
01.01.2014 04:50 -2,5 C 54 % 1016,0 hPa 0,0 l/m 0,3 km/h (0 Bft) O-NO 67 -10,5 C -1,7 C 0,0 km/h (0 Bft)
01.01.2014 04:55 -2,5 C 55 % 1016,0 hPa 0,0 l/m 0,5 km/h (0 Bft) O-NO 67 -10,3 C -2,3 C 0,0 km/h (0 Bft)
01.01.2014 05:00 -2,8 C 56 % 1016,0 hPa 0,0 l/m 0,5 km/h (0 Bft) O-NO 67 -10,3 C -2,7 C 0,0 km/h (0 Bft)
01.01.2014 05:05 -3,2 C 58 % 1016,1 hPa 0,0 l/m 0,5 km/h (0 Bft) O 90 -10,3 C -2,9 C 0,0 km/h (0 Bft)
01.01.2014 05:10 -3,4 C 58 % 1016,1 hPa 0,0 l/m 0,2 km/h (0 Bft) O 90 -10,4 C -3,3 C 0,0 km/h (0 Bft)
01.01.2014 05:15 -3,3 C 59 % 1016,1 hPa 0,0 l/m 0,3 km/h (0 Bft) O 90 -10,1 C -3,5 C 3,4 km/h (1 Bft)
01.01.2014 05:20 -2,1 C 60 % 1016,1 hPa 0,0 l/m 2,3 km/h (1 Bft) O-SO 112 -8,8 C -3,2 C 11,7 km/h (2 Bft)
01.01.2014 05:25 -0,8 C 58 % 1016,3 hPa 0,0 l/m 4,0 km/h (1 Bft) SO 135 -8,0 C -3,3 C 0,0 km/h (0 Bft)
01.01.2014 05:30 -2,8 C 58 % 1016,3 hPa 0,0 l/m 2,9 km/h (1 Bft) NO 45 -9,9 C -2,9 C 2,3 km/h (1 Bft)
01.01.2014 05:35 -3,3 C 59 % 1016,3 hPa 0,0 l/m 1,0 km/h (0 Bft) N-NW 337 -10,1 C -2,6 C 1,6 km/h (1 Bft)
01.01.2014 05:40 -3,2 C 61 % 1016,3 hPa 0,0 l/m 0,8 km/h (0 Bft) N 360 -9,6 C -2,7 C 0,0 km/h (0 Bft)
01.01.2014 05:45 -3,1 C 62 % 1016,3 hPa 0,0 l/m 0,5 km/h (0 Bft) N-NW 337 -9,3 C -2,8 C 0,0 km/h (0 Bft)
01.01.2014 05:50 -3,0 C 63 % 1016,3 hPa 0,0 l/m 0,5 km/h (0 Bft) O-SO 112 -9,0 C -2,8 C 0,0 km/h (0 Bft)
01.01.2014 05:55 -3,4 C 63 % 1016,3 hPa 0,0 l/m 1,1 km/h (1 Bft) S 180 -9,4 C -2,8 C 1,8 km/h (1 Bft)
01.01.2014 06:00 -3,9 C 64 % 1016,3 hPa 0,0 l/m 1,1 km/h (1 Bft) S 180 -9,7 C -3,1 C 0,0 km/h (0 Bft)
01.01.2014 06:05 -4,0 C 64 % 1016,2 hPa 0,0 l/m 1,0 km/h (0 Bft) O-SO 112 -9,8 C -3,4 C 3,1 km/h (1 Bft)
01.01.2014 06:10 -3,9 C 65 % 1016,2 hPa 0,0 l/m 1,1 km/h (1 Bft) O 90 -9,5 C -3,7 C 0,0 km/h (0 Bft)
01.01.2014 06:15 -3,6 C 67 % 1016,2 hPa 0,0 l/m 1,1 km/h (1 Bft) O 90 -8,8 C -3,7 C 0,0 km/h (0 Bft)
01.01.2014 06:20 -3,0 C 67 % 1016,2 hPa 0,0 l/m 1,6 km/h (1 Bft) N 360 -8,2 C -3,3 C 4,0 km/h (1 Bft)
01.01.2014 06:25 -3,2 C 66 % 1016,2 hPa 0,0 l/m 2,3 km/h (1 Bft) O-SO 112 -8,6 C -3,1 C 4,0 km/h (1 Bft)
01.01.2014 06:30 -3,0 C 66 % 1016,2 hPa 0,0 l/m 2,1 km/h (1 Bft) SW 225 -8,4 C -2,8 C 0,0 km/h (0 Bft)
01.01.2014 06:35 -3,0 C 66 % 1016,2 hPa 0,0 l/m 1,3 km/h (1 Bft) SW 225 -8,4 C -2,8 C 0,0 km/h (0 Bft)
01.01.2014 06:40 -3,1 C 67 % 1016,2 hPa 0,0 l/m 0,6 km/h (0 Bft) N 360 -8,3 C -2,9 C 0,0 km/h (0 Bft)
01.01.2014 06:43 -3,1 C 67 % 1016,2 hPa 0,0 l/m 1,3 km/h (1 Bft) NO 45 -8,3 C -3,0 C 4,8 km/h (1 Bft)
01.01.2014 06:45 -3,1 C 67 % 1016,2 hPa 0,0 l/m 1,3 km/h (1 Bft) NO 45 -8,3 C -3,0 C 4,8 km/h (1 Bft)
01.01.2014 06:50 -2,8 C 68 % 1016,2 hPa 0,0 l/m 1,8 km/h (1 Bft) S-SO 157 -7,9 C -2,9 C 3,5 km/h (1 Bft)
01.01.2014 06:55 -3,4 C 67 % 1016,2 hPa 0,0 l/m 2,1 km/h (1 Bft) S-SO 157 -8,6 C -3,1 C 2,9 km/h (1 Bft)
01.01.2014 07:00 -2,9 C 70 % 1016,2 hPa 0,0 l/m 2,4 km/h (1 Bft) O-NO 67 -7,6 C -3,7 C 4,7 km/h (1 Bft)
01.01.2014 07:05 -3,0 C 69 % 1016,2 hPa 0,0 l/m 3,1 km/h (1 Bft) O-NO 67 -7,9 C -4,1 C 5,8 km/h (2 Bft)
01.01.2014 07:10 -2,7 C 71 % 1016,2 hPa 0,0 l/m 2,7 km/h (1 Bft) O-SO 112 -7,2 C -3,8 C 0,0 km/h (0 Bft)
01.01.2014 07:15 -3,3 C 70 % 1016,2 hPa 0,0 l/m 1,6 km/h (1 Bft) O-SO 112 -8,0 C -3,2 C 0,0 km/h (0 Bft)
01.01.2014 07:20 -3,5 C 70 % 1016,2 hPa 0,0 l/m 0,5 km/h (0 Bft) O-SO 112 -8,2 C -3,6 C 0,0 km/h (0 Bft)
01.01.2014 07:25 -3,5 C 71 % 1016,2 hPa 0,0 l/m 0,3 km/h (0 Bft) O-SO 112 -8,0 C -3,6 C 0,0 km/h (0 Bft)
01.01.2014 07:30 -3,7 C 71 % 1016,2 hPa 0,0 l/m 0,6 km/h (0 Bft) SO 135 -8,2 C -3,7 C 4,2 km/h (1 Bft)
01.01.2014 07:35 -2,8 C 74 % 1016,2 hPa 0,0 l/m 2,3 km/h (1 Bft) NO 45 -6,8 C -3,8 C 6,4 km/h (2 Bft)
01.01.2014 07:40 -3,6 C 71 % 1016,2 hPa 0,0 l/m 3,1 km/h (1 Bft) S-SW 202 -8,1 C -4,3 C 3,9 km/h (1 Bft)
01.01.2014 07:45 -3,3 C 72 % 1016,2 hPa 0,0 l/m 2,6 km/h (1 Bft) O-NO 67 -7,6 C -3,9 C 0,0 km/h (0 Bft)
01.01.2014 07:50 -3,6 C 72 % 1016,2 hPa 0,0 l/m 1,9 km/h (1 Bft) O-NO 67 -7,9 C -3,6 C 6,4 km/h (2 Bft)
01.01.2014 07:55 -3,3 C 74 % 1016,2 hPa 0,0 l/m 2,1 km/h (1 Bft) N-NW 337 -7,3 C -3,5 C 3,7 km/h (1 Bft)
01.01.2014 08:00 -3,1 C 73 % 1016,2 hPa 0,0 l/m 2,9 km/h (1 Bft) O-SO 112 -7,2 C -3,9 C 5,8 km/h (2 Bft)
01.01.2014 08:05 -3,0 C 73 % 1016,6 hPa 0,0 l/m 2,4 km/h (1 Bft) O-NO 67 -7,1 C -3,5 C 5,0 km/h (1 Bft)
01.01.2014 08:10 -2,7 C 72 % 1016,6 hPa 0,0 l/m 2,9 km/h (1 Bft) S-SO 157 -7,0 C -3,4 C 3,5 km/h (1 Bft)
01.01.2014 08:15 -2,5 C 72 % 1016,6 hPa 0,0 l/m 2,7 km/h (1 Bft) O 90 -6,8 C -3,1 C 0,0 km/h (0 Bft)
01.01.2014 08:20 -2,3 C 73 % 1016,6 hPa 0,0 l/m 1,4 km/h (1 Bft) NO 45 -6,5 C -2,4 C 0,0 km/h (0 Bft)
01.01.2014 08:25 -2,4 C 72 % 1016,9 hPa 0,0 l/m 1,1 km/h (1 Bft) NO 45 -6,7 C -2,3 C 5,5 km/h (1 Bft)
01.01.2014 08:30 -2,0 C 73 % 1016,9 hPa 0,0 l/m 2,3 km/h (1 Bft) S-SO 157 -6,2 C -2,0 C 1,8 km/h (1 Bft)
01.01.2014 08:35 -2,4 C 72 % 1016,9 hPa 0,0 l/m 2,3 km/h (1 Bft) SO 135 -6,7 C -2,1 C 0,0 km/h (0 Bft)
01.01.2014 08:40 -2,5 C 72 % 1016,9 hPa 0,0 l/m 0,6 km/h (0 Bft) S 180 -6,8 C -2,3 C 2,4 km/h (1 Bft)
01.01.2014 08:45 -2,8 C 72 % 1016,9 hPa 0,0 l/m 1,0 km/h (0 Bft) S 180 -7,1 C -2,3 C 1,9 km/h (1 Bft)
01.01.2014 08:50 -2,6 C 73 % 1016,9 hPa 0,0 l/m 1,0 km/h (0 Bft) S 180 -6,8 C -2,3 C 0,0 km/h (0 Bft)
01.01.2014 08:55 -2,7 C 73 % 1016,9 hPa 0,0 l/m 1,1 km/h (1 Bft) W-SW 247 -6,9 C -2,4 C 4,3 km/h (1 Bft)
01.01.2014 09:00 -2,7 C 73 % 1016,9 hPa 0,0 l/m 1,8 km/h (1 Bft) O-SO 112 -6,9 C -2,6 C 2,1 km/h (1 Bft)
01.01.2014 09:05 -2,6 C 73 % 1017,2 hPa 0,0 l/m 1,4 km/h (1 Bft) O-SO 112 -6,8 C -2,6 C 0,0 km/h (0 Bft)
01.01.2014 09:10 -2,5 C 73 % 1017,2 hPa 0,0 l/m 0,3 km/h (0 Bft) O 90 -6,7 C -2,5 C 0,0 km/h (0 Bft)
01.01.2014 09:15 -2,2 C 73 % 1017,2 hPa 0,0 l/m 0,3 km/h (0 Bft) O-SO 112 -6,4 C -2,4 C 0,0 km/h (0 Bft)
01.01.2014 09:20 -2,0 C 73 % 1017,2 hPa 0,0 l/m 0,5 km/h (0 Bft) O 90 -6,2 C -2,1 C 0,0 km/h (0 Bft)
01.01.2014 09:25 -1,8 C 73 % 1017,1 hPa 0,0 l/m 0,2 km/h (0 Bft) O 90 -6,0 C -1,9 C 0,0 km/h (0 Bft)
01.01.2014 09:30 -1,5 C 73 % 1017,1 hPa 0,0 l/m 0,2 km/h (0 Bft) O-SO 112 -5,7 C -1,5 C 0,0 km/h (0 Bft)
01.01.2014 09:35 -1,3 C 73 % 1017,1 hPa 0,0 l/m 0,0 km/h (0 Bft) O-SO 112 -5,5 C -1,1 C 0,0 km/h (0 Bft)
01.01.2014 09:40 -0,9 C 72 % 1017,1 hPa 0,0 l/m 0,2 km/h (0 Bft) S 180 -5,3 C -0,7 C 0,0 km/h (0 Bft)
01.01.2014 09:45 -0,5 C 72 % 1017,6 hPa 0,0 l/m 0,8 km/h (0 Bft) O 90 -4,9 C -0,5 C 1,6 km/h (1 Bft)
01.01.2014 09:50 -0,3 C 72 % 1017,6 hPa 0,0 l/m 1,3 km/h (1 Bft) NW 315 -4,7 C 0,1 C 0,0 km/h (0 Bft)
01.01.2014 09:55 0,3 C 71 % 1017,6 hPa 0,0 l/m 0,6 km/h (0 Bft) N-NW 337 -4,3 C 0,4 C 0,0 km/h (0 Bft)
01.01.2014 10:00 0,7 C 69 % 1017,6 hPa 0,0 l/m 0,5 km/h (0 Bft) NW 315 -4,3 C 1,0 C 0,0 km/h (0 Bft)
01.01.2014 10:05 0,5 C 69 % 1017,6 hPa 0,0 l/m 0,5 km/h (0 Bft) N-NW 337 -4,5 C 1,2 C 0,0 km/h (0 Bft)
01.01.2014 10:10 0,1 C 69 % 1017,6 hPa 0,0 l/m 0,0 km/h (0 Bft) N-NW 337 -4,9 C 1,0 C 0,0 km/h (0 Bft)
01.01.2014 10:15 0,2 C 69 % 1017,6 hPa 0,0 l/m 0,0 km/h (0 Bft) N-NW 337 -4,8 C 0,8 C 0,0 km/h (0 Bft)
01.01.2014 10:20 -0,1 C 69 % 1017,6 hPa 0,0 l/m 0,5 km/h (0 Bft) N 360 -5,1 C 0,5 C 3,2 km/h (1 Bft)
01.01.2014 10:25 -0,2 C 69 % 1017,6 hPa 0,0 l/m 1,1 km/h (1 Bft) N 360 -5,2 C 0,5 C 2,9 km/h (1 Bft)
01.01.2014 10:30 0,1 C 69 % 1017,6 hPa 0,0 l/m 1,3 km/h (1 Bft) N 360 -4,9 C 0,5 C 0,0 km/h (0 Bft)
01.01.2014 10:35 0,0 C 69 % 1017,6 hPa 0,0 l/m 1,3 km/h (1 Bft) N 360 -5,0 C 0,6 C 1,9 km/h (1 Bft)
01.01.2014 10:40 0,1 C 69 % 1017,6 hPa 0,0 l/m 0,5 km/h (0 Bft) N 360 -4,9 C 0,6 C 0,0 km/h (0 Bft)
01.01.2014 10:45 0,4 C 69 % 1017,8 hPa 0,0 l/m 0,6 km/h (0 Bft) N 360 -4,6 C 0,6 C 2,3 km/h (1 Bft)
01.01.2014 10:50 0,6 C 68 % 1017,8 hPa 0,0 l/m 0,5 km/h (0 Bft) N 360 -4,6 C 0,7 C 0,0 km/h (0 Bft)
01.01.2014 10:55 1,0 C 66 % 1017,8 hPa 0,0 l/m 1,3 km/h (1 Bft) N-NO 22 -4,6 C 0,9 C 3,1 km/h (1 Bft)
01.01.2014 11:00 1,2 C 66 % 1017,8 hPa 0,0 l/m 2,1 km/h (1 Bft) N-NO 22 -4,4 C 1,2 C 0,0 km/h (0 Bft)
01.01.2014 11:05 1,6 C 65 % 1017,4 hPa 0,0 l/m 2,4 km/h (1 Bft) NO 45 -4,3 C 1,4 C 3,9 km/h (1 Bft)
01.01.2014 11:10 1,2 C 65 % 1017,4 hPa 0,0 l/m 1,9 km/h (1 Bft) NO 45 -4,6 C 1,9 C 3,4 km/h (1 Bft)
01.01.2014 11:15 1,8 C 66 % 1017,4 hPa 0,0 l/m 2,3 km/h (1 Bft) NO 45 -3,9 C 2,0 C 1,9 km/h (1 Bft)
01.01.2014 11:20 1,6 C 64 % 1017,4 hPa 0,0 l/m 1,6 km/h (1 Bft) NO 45 -4,5 C 2,3 C 0,0 km/h (0 Bft)
01.01.2014 11:25 1,9 C 65 % 1016,9 hPa 0,0 l/m 0,6 km/h (0 Bft) NO 45 -4,0 C 2,3 C 2,4 km/h (1 Bft)
01.01.2014 11:30 2,3 C 65 % 1016,9 hPa 0,0 l/m 1,0 km/h (0 Bft) NO 45 -3,6 C 2,8 C 0,0 km/h (0 Bft)
01.01.2014 11:35 2,8 C 64 % 1016,9 hPa 0,0 l/m 1,8 km/h (1 Bft) NO 45 -3,3 C 2,9 C 3,4 km/h (1 Bft)
01.01.2014 11:40 3,3 C 62 % 1016,9 hPa 0,0 l/m 2,7 km/h (1 Bft) NO 45 -3,3 C 3,4 C 2,3 km/h (1 Bft)
01.01.2014 11:45 3,5 C 61 % 1016,8 hPa 0,0 l/m 2,7 km/h (1 Bft) NO 45 -3,3 C 3,6 C 2,7 km/h (1 Bft)
01.01.2014 11:50 3,2 C 61 % 1016,8 hPa 0,0 l/m 1,1 km/h (1 Bft) NO 45 -3,6 C 3,7 C 0,0 km/h (0 Bft)
01.01.2014 11:55 3,1 C 61 % 1016,8 hPa 0,0 l/m 0,5 km/h (0 Bft) NO 45 -3,7 C 3,7 C 0,0 km/h (0 Bft)
01.01.2014 12:00 3,4 C 61 % 1016,8 hPa 0,0 l/m 0,2 km/h (0 Bft) NO 45 -3,4 C 3,7 C 0,0 km/h (0 Bft)
01.01.2014 12:05 3,4 C 61 % 1016,8 hPa 0,0 l/m 0,3 km/h (0 Bft) N-NO 22 -3,4 C 3,9 C 2,4 km/h (1 Bft)
01.01.2014 12:10 3,8 C 61 % 1016,8 hPa 0,0 l/m 1,1 km/h (1 Bft) NW 315 -3,0 C 4,2 C 2,3 km/h (1 Bft)
01.01.2014 12:15 3,8 C 61 % 1016,8 hPa 0,0 l/m 1,0 km/h (0 Bft) NW 315 -3,0 C 4,6 C 0,0 km/h (0 Bft)
01.01.2014 12:20 4,0 C 61 % 1016,8 hPa 0,0 l/m 0,5 km/h (0 Bft) N-NW 337 -2,8 C 4,7 C 0,0 km/h (0 Bft)
01.01.2014 12:25 4,1 C 61 % 1016,5 hPa 0,0 l/m 1,1 km/h (1 Bft) NO 45 -2,7 C 4,8 C 3,4 km/h (1 Bft)
01.01.2014 12:30 4,4 C 61 % 1016,5 hPa 0,0 l/m 1,8 km/h (1 Bft) NO 45 -2,4 C 5,1 C 0,0 km/h (0 Bft)
01.01.2014 12:35 4,0 C 61 % 1016,5 hPa 0,0 l/m 1,1 km/h (1 Bft) N 360 -2,8 C 5,1 C 2,6 km/h (1 Bft)
01.01.2014 12:40 4,0 C 62 % 1016,5 hPa 0,0 l/m 0,3 km/h (0 Bft) N-NW 337 -2,6 C 5,3 C 0,0 km/h (0 Bft)
01.01.2014 12:43 4,0 C 61 % 1016,2 hPa 0,0 l/m 0,8 km/h (0 Bft) W-NW 292 -2,8 C 5,5 C 4,3 km/h (1 Bft)
01.01.2014 12:45 4,0 C 61 % 1016,2 hPa 0,0 l/m 0,8 km/h (0 Bft) W-NW 292 -2,8 C 5,5 C 4,3 km/h (1 Bft)
01.01.2014 12:50 4,3 C 62 % 1016,2 hPa 0,0 l/m 1,4 km/h (1 Bft) NW 315 -2,3 C 5,7 C 0,0 km/h (0 Bft)
01.01.2014 12:55 4,2 C 60 % 1016,2 hPa 0,0 l/m 1,4 km/h (1 Bft) W-NW 292 -2,9 C 5,7 C 2,9 km/h (1 Bft)
01.01.2014 13:00 4,3 C 58 % 1016,2 hPa 0,0 l/m 3,1 km/h (1 Bft) N-NO 22 -3,2 C 5,9 C 6,4 km/h (2 Bft)
01.01.2014 13:05 4,5 C 56 % 1016,1 hPa 0,0 l/m 5,0 km/h (1 Bft) N-NW 337 -3,5 C 5,3 C 6,8 km/h (2 Bft)
01.01.2014 13:10 4,6 C 57 % 1016,1 hPa 0,0 l/m 2,7 km/h (1 Bft) N-NO 22 -3,2 C 6,2 C 1,9 km/h (1 Bft)
01.01.2014 13:15 4,9 C 56 % 1016,1 hPa 0,0 l/m 1,0 km/h (0 Bft) N-NO 22 -3,1 C 6,3 C 2,3 km/h (1 Bft)
01.01.2014 13:20 5,0 C 55 % 1016,1 hPa 0,0 l/m 2,1 km/h (1 Bft) N 360 -3,3 C 6,6 C 6,8 km/h (2 Bft)
01.01.2014 13:25 4,9 C 54 % 1015,9 hPa 0,0 l/m 3,2 km/h (1 Bft) N 360 -3,6 C 6,6 C 5,8 km/h (2 Bft)
01.01.2014 13:30 4,7 C 55 % 1015,9 hPa 0,0 l/m 3,9 km/h (1 Bft) N-NO 22 -3,6 C 6,4 C 3,2 km/h (1 Bft)
01.01.2014 13:35 4,9 C 54 % 1015,9 hPa 0,0 l/m 2,9 km/h (1 Bft) N 360 -3,6 C 6,6 C 2,7 km/h (1 Bft)
01.01.2014 13:40 4,8 C 54 % 1015,9 hPa 0,0 l/m 2,7 km/h (1 Bft) N 360 -3,7 C 6,6 C 6,8 km/h (2 Bft)
01.01.2014 13:45 4,6 C 55 % 1015,9 hPa 0,0 l/m 3,1 km/h (1 Bft) N 360 -3,6 C 6,7 C 3,4 km/h (1 Bft)
01.01.2014 13:50 4,6 C 55 % 1015,9 hPa 0,0 l/m 2,7 km/h (1 Bft) N-NW 337 -3,6 C 7,5 C 3,1 km/h (1 Bft)
01.01.2014 13:55 4,8 C 55 % 1015,9 hPa 0,0 l/m 2,1 km/h (1 Bft) N-NO 22 -3,5 C 8,0 C 1,9 km/h (1 Bft)
01.01.2014 14:00 4,8 C 55 % 1015,9 hPa 0,0 l/m 1,3 km/h (1 Bft) N-NO 22 -3,5 C 8,3 C 0,0 km/h (0 Bft)
01.01.2014 14:05 5,0 C 55 % 1015,9 hPa 0,0 l/m 1,3 km/h (1 Bft) NO 45 -3,3 C 8,1 C 3,2 km/h (1 Bft)
01.01.2014 14:10 5,3 C 53 % 1015,9 hPa 0,0 l/m 1,9 km/h (1 Bft) N-NO 22 -3,5 C 7,7 C 3,9 km/h (1 Bft)
01.01.2014 14:15 5,4 C 53 % 1015,9 hPa 0,0 l/m 2,3 km/h (1 Bft) NO 45 -3,4 C 7,6 C 2,4 km/h (1 Bft)
01.01.2014 14:20 5,4 C 53 % 1015,9 hPa 0,0 l/m 1,9 km/h (1 Bft) NO 45 -3,4 C 7,7 C 2,4 km/h (1 Bft)
01.01.2014 14:25 5,1 C 54 % 1015,6 hPa 0,0 l/m 1,9 km/h (1 Bft) N-NO 22 -3,4 C 7,7 C 2,6 km/h (1 Bft)
01.01.2014 14:30 5,2 C 54 % 1015,6 hPa 0,0 l/m 2,1 km/h (1 Bft) N 360 -3,3 C 7,3 C 2,4 km/h (1 Bft)
01.01.2014 14:35 5,1 C 54 % 1015,6 hPa 0,0 l/m 2,3 km/h (1 Bft) N-NO 22 -3,4 C 7,0 C 3,1 km/h (1 Bft)
01.01.2014 14:40 5,1 C 53 % 1015,6 hPa 0,0 l/m 2,6 km/h (1 Bft) NO 45 -3,7 C 6,7 C 1,8 km/h (1 Bft)
01.01.2014 14:45 5,0 C 54 % 1015,5 hPa 0,0 l/m 2,6 km/h (1 Bft) N 360 -3,5 C 6,7 C 4,3 km/h (1 Bft)
01.01.2014 14:50 4,6 C 55 % 1015,5 hPa 0,0 l/m 2,9 km/h (1 Bft) N-NO 22 -3,6 C 7,2 C 3,2 km/h (1 Bft)
01.01.2014 14:55 4,5 C 55 % 1015,5 hPa 0,0 l/m 3,1 km/h (1 Bft) N 360 -3,7 C 7,4 C 5,3 km/h (1 Bft)
01.01.2014 15:00 4,7 C 54 % 1015,5 hPa 0,0 l/m 2,9 km/h (1 Bft) N 360 -3,8 C 7,1 C 2,7 km/h (1 Bft)
01.01.2014 15:05 4,7 C 52 % 1015,6 hPa 0,0 l/m 2,7 km/h (1 Bft) N 360 -4,3 C 6,9 C 3,2 km/h (1 Bft)
01.01.2014 15:10 4,3 C 52 % 1015,6 hPa 0,0 l/m 2,3 km/h (1 Bft) NO 45 -4,7 C 6,3 C 3,1 km/h (1 Bft)
01.01.2014 15:15 4,2 C 52 % 1015,6 hPa 0,0 l/m 2,4 km/h (1 Bft) N-NW 337 -4,8 C 5,9 C 6,4 km/h (2 Bft)
01.01.2014 15:20 4,0 C 53 % 1015,6 hPa 0,0 l/m 2,7 km/h (1 Bft) NO 45 -4,7 C 5,4 C 3,1 km/h (1 Bft)
01.01.2014 15:25 4,0 C 53 % 1015,4 hPa 0,0 l/m 2,7 km/h (1 Bft) N-NO 22 -4,7 C 5,1 C 4,5 km/h (1 Bft)
01.01.2014 15:30 3,8 C 53 % 1015,4 hPa 0,0 l/m 2,7 km/h (1 Bft) NO 45 -4,9 C 4,8 C 4,8 km/h (1 Bft)
01.01.2014 15:35 3,6 C 54 % 1015,4 hPa 0,0 l/m 3,1 km/h (1 Bft) N 360 -4,8 C 4,6 C 1,6 km/h (1 Bft)
01.01.2014 15:40 3,5 C 55 % 1015,4 hPa 0,0 l/m 2,7 km/h (1 Bft) NO 45 -4,7 C 4,2 C 3,5 km/h (1 Bft)
01.01.2014 15:45 3,4 C 55 % 1015,3 hPa 0,0 l/m 2,6 km/h (1 Bft) NO 45 -4,8 C 4,1 C 2,4 km/h (1 Bft)
01.01.2014 15:50 3,3 C 55 % 1015,3 hPa 0,0 l/m 2,1 km/h (1 Bft) N-NO 22 -4,9 C 3,7 C 2,1 km/h (1 Bft)
01.01.2014 15:55 3,1 C 55 % 1015,3 hPa 0,0 l/m 1,8 km/h (1 Bft) N-NO 22 -5,0 C 3,5 C 2,7 km/h (1 Bft)
01.01.2014 16:00 3,2 C 56 % 1015,3 hPa 0,0 l/m 2,4 km/h (1 Bft) N-NO 22 -4,7 C 3,4 C 3,1 km/h (1 Bft)
01.01.2014 16:05 2,9 C 57 % 1015,0 hPa 0,0 l/m 3,2 km/h (1 Bft) NO 45 -4,8 C 3,0 C 4,0 km/h (1 Bft)
01.01.2014 16:10 2,7 C 58 % 1015,0 hPa 0,0 l/m 3,2 km/h (1 Bft) NO 45 -4,7 C 2,9 C 3,9 km/h (1 Bft)
01.01.2014 16:15 2,7 C 58 % 1015,0 hPa 0,0 l/m 3,4 km/h (1 Bft) O-NO 67 -4,7 C 2,7 C 4,0 km/h (1 Bft)
01.01.2014 16:20 2,6 C 59 % 1015,0 hPa 0,0 l/m 3,4 km/h (1 Bft) O 90 -4,6 C 2,5 C 3,5 km/h (1 Bft)
01.01.2014 16:25 2,5 C 59 % 1014,9 hPa 0,0 l/m 3,4 km/h (1 Bft) O-NO 67 -4,7 C 2,2 C 4,5 km/h (1 Bft)
01.01.2014 16:30 2,5 C 59 % 1014,9 hPa 0,0 l/m 3,5 km/h (1 Bft) O-NO 67 -4,7 C 1,8 C 3,2 km/h (1 Bft)
01.01.2014 16:35 1,9 C 60 % 1014,9 hPa 0,0 l/m 2,4 km/h (1 Bft) O 90 -5,0 C 2,0 C 0,0 km/h (0 Bft)
01.01.2014 16:40 2,0 C 61 % 1014,9 hPa 0,0 l/m 1,6 km/h (1 Bft) O-NO 67 -4,7 C 1,5 C 3,2 km/h (1 Bft)
01.01.2014 16:45 2,0 C 62 % 1014,6 hPa 0,0 l/m 2,3 km/h (1 Bft) O-NO 67 -4,5 C 1,3 C 4,3 km/h (1 Bft)
01.01.2014 16:50 1,9 C 62 % 1014,6 hPa 0,0 l/m 2,3 km/h (1 Bft) O-NO 67 -4,6 C 1,1 C 0,0 km/h (0 Bft)
01.01.2014 16:55 0,9 C 62 % 1014,6 hPa 0,0 l/m 1,3 km/h (1 Bft) O 90 -5,5 C 0,8 C 0,0 km/h (0 Bft)
01.01.2014 17:00 0,2 C 63 % 1014,6 hPa 0,0 l/m 0,3 km/h (0 Bft) O 90 -6,0 C 0,2 C 2,1 km/h (1 Bft)
01.01.2014 17:05 0,7 C 66 % 1014,2 hPa 0,0 l/m 1,3 km/h (1 Bft) O 90 -4,9 C -0,1 C 4,3 km/h (1 Bft)
01.01.2014 17:10 0,8 C 66 % 1014,2 hPa 0,0 l/m 2,9 km/h (1 Bft) O 90 -4,8 C -0,6 C 3,1 km/h (1 Bft)
01.01.2014 17:15 0,0 C 66 % 1014,2 hPa 0,0 l/m 2,3 km/h (1 Bft) O-NO 67 -5,6 C -0,5 C 3,4 km/h (1 Bft)
01.01.2014 17:20 0,7 C 68 % 1014,2 hPa 0,0 l/m 2,3 km/h (1 Bft) O-NO 67 -4,5 C -0,6 C 4,2 km/h (1 Bft)
01.01.2014 17:25 0,9 C 67 % 1014,3 hPa 0,0 l/m 3,5 km/h (1 Bft) NO 45 -4,5 C -1,2 C 0,0 km/h (0 Bft)
01.01.2014 17:30 1,0 C 66 % 1014,3 hPa 0,0 l/m 4,8 km/h (1 Bft) O 90 -4,6 C -2,1 C 6,9 km/h (2 Bft)
01.01.2014 17:35 0,9 C 66 % 1014,3 hPa 0,0 l/m 5,3 km/h (1 Bft) O-SO 112 -4,7 C -2,1 C 6,4 km/h (2 Bft)
01.01.2014 17:40 -0,3 C 67 % 1014,3 hPa 0,0 l/m 4,7 km/h (1 Bft) O 90 -5,7 C -2,3 C 0,0 km/h (0 Bft)
01.01.2014 17:45 -1,1 C 68 % 1014,0 hPa 0,0 l/m 2,6 km/h (1 Bft) O-NO 67 -6,2 C -1,3 C 0,0 km/h (0 Bft)
01.01.2014 17:50 -1,6 C 69 % 1014,0 hPa 0,0 l/m 1,0 km/h (0 Bft) O 90 -6,5 C -1,7 C 1,9 km/h (1 Bft)
01.01.2014 17:55 -1,5 C 71 % 1014,0 hPa 0,0 l/m 1,0 km/h (0 Bft) O 90 -6,1 C -1,9 C 0,0 km/h (0 Bft)
01.01.2014 18:00 -1,8 C 71 % 1014,0 hPa 0,0 l/m 0,3 km/h (0 Bft) O-SO 112 -6,3 C -2,3 C 0,0 km/h (0 Bft)
01.01.2014 18:05 -2,0 C 71 % 1013,8 hPa 0,0 l/m 0,0 km/h (0 Bft) O-SO 112 -6,5 C -2,6 C 0,0 km/h (0 Bft)
01.01.2014 18:10 -2,3 C 72 % 1013,8 hPa 0,0 l/m 0,2 km/h (0 Bft) NO 45 -6,6 C -2,8 C 2,4 km/h (1 Bft)
01.01.2014 18:15 -2,4 C 72 % 1013,8 hPa 0,0 l/m 0,3 km/h (0 Bft) O 90 -6,7 C -2,8 C 0,0 km/h (0 Bft)
01.01.2014 18:20 -1,9 C 73 % 1013,8 hPa 0,0 l/m 0,8 km/h (0 Bft) NO 45 -6,1 C -2,8 C 2,4 km/h (1 Bft)
01.01.2014 18:25 -1,5 C 74 % 1013,6 hPa 0,0 l/m 1,0 km/h (0 Bft) O-SO 112 -5,5 C -2,8 C 2,3 km/h (1 Bft)
01.01.2014 18:30 -1,1 C 74 % 1013,6 hPa 0,0 l/m 3,5 km/h (1 Bft) O-SO 112 -5,1 C -3,3 C 5,5 km/h (1 Bft)
01.01.2014 18:35 -1,1 C 74 % 1013,6 hPa 0,0 l/m 4,2 km/h (1 Bft) SO 135 -5,1 C -3,2 C 2,6 km/h (1 Bft)
01.01.2014 18:40 -1,4 C 74 % 1013,6 hPa 0,0 l/m 3,2 km/h (1 Bft) O-SO 112 -5,4 C -2,4 C 1,8 km/h (1 Bft)
01.01.2014 18:43 -1,5 C 74 % 1013,6 hPa 0,0 l/m 1,9 km/h (1 Bft) O-SO 112 -5,5 C -1,7 C 5,3 km/h (1 Bft)
01.01.2014 18:45 -1,5 C 74 % 1013,6 hPa 0,0 l/m 1,9 km/h (1 Bft) O-SO 112 -5,5 C -1,7 C 5,3 km/h (1 Bft)
01.01.2014 18:50 -1,4 C 74 % 1013,6 hPa 0,0 l/m 2,1 km/h (1 Bft) SO 135 -5,4 C -1,8 C 2,4 km/h (1 Bft)
01.01.2014 18:55 -1,2 C 74 % 1013,6 hPa 0,0 l/m 3,2 km/h (1 Bft) O 90 -5,2 C -2,7 C 0,0 km/h (0 Bft)
01.01.2014 19:00 -2,2 C 73 % 1013,6 hPa 0,0 l/m 1,8 km/h (1 Bft) NO 45 -6,4 C -2,3 C 4,0 km/h (1 Bft)
01.01.2014 19:05 -1,8 C 73 % 1013,4 hPa 0,0 l/m 1,6 km/h (1 Bft) O 90 -6,0 C -2,4 C 3,9 km/h (1 Bft)
01.01.2014 19:10 -1,3 C 73 % 1013,4 hPa 0,0 l/m 3,5 km/h (1 Bft) NO 45 -5,5 C -3,4 C 3,9 km/h (1 Bft)
01.01.2014 19:15 -1,8 C 72 % 1013,4 hPa 0,0 l/m 2,3 km/h (1 Bft) NO 45 -6,2 C -2,7 C 0,0 km/h (0 Bft)
01.01.2014 19:20 -2,5 C 72 % 1013,4 hPa 0,0 l/m 0,2 km/h (0 Bft) O-NO 67 -6,8 C -2,9 C 0,0 km/h (0 Bft)
01.01.2014 19:25 -2,0 C 74 % 1012,9 hPa 0,0 l/m 0,5 km/h (0 Bft) O-NO 67 -6,0 C -3,0 C 0,0 km/h (0 Bft)
01.01.2014 19:30 -2,7 C 73 % 1012,9 hPa 0,0 l/m 0,6 km/h (0 Bft) O-SO 112 -6,9 C -3,1 C 0,0 km/h (0 Bft)
01.01.2014 19:35 -2,9 C 73 % 1012,9 hPa 0,0 l/m 0,2 km/h (0 Bft) O-SO 112 -7,0 C -3,3 C 0,0 km/h (0 Bft)
01.01.2014 19:40 -3,2 C 73 % 1012,9 hPa 0,0 l/m 0,0 km/h (0 Bft) O-SO 112 -7,3 C -3,6 C 0,0 km/h (0 Bft)
01.01.2014 19:45 -3,4 C 74 % 1012,8 hPa 0,0 l/m 0,0 km/h (0 Bft) O-SO 112 -7,4 C -3,8 C 0,0 km/h (0 Bft)
01.01.2014 19:50 -3,5 C 75 % 1012,8 hPa 0,0 l/m 0,0 km/h (0 Bft) O-SO 112 -7,3 C -3,9 C 0,0 km/h (0 Bft)
01.01.2014 19:55 -3,2 C 78 % 1012,8 hPa 0,0 l/m 0,6 km/h (0 Bft) NO 45 -6,5 C -4,0 C 0,0 km/h (0 Bft)
01.01.2014 20:00 -3,5 C 78 % 1012,8 hPa 0,0 l/m 1,0 km/h (0 Bft) NO 45 -6,8 C -3,9 C 0,0 km/h (0 Bft)
01.01.2014 20:05 -3,6 C 77 % 1012,7 hPa 0,0 l/m 0,2 km/h (0 Bft) NO 45 -7,0 C -4,0 C 0,0 km/h (0 Bft)
01.01.2014 20:10 -3,5 C 77 % 1012,7 hPa 0,0 l/m 0,0 km/h (0 Bft) NO 45 -6,9 C -4,0 C 0,0 km/h (0 Bft)
01.01.2014 20:15 -3,9 C 77 % 1012,7 hPa 0,0 l/m 0,0 km/h (0 Bft) NO 45 -7,3 C -4,0 C 0,0 km/h (0 Bft)
01.01.2014 20:20 -3,7 C 78 % 1012,7 hPa 0,0 l/m 0,5 km/h (0 Bft) O-SO 112 -7,0 C -4,0 C 2,4 km/h (1 Bft)
01.01.2014 20:25 -3,6 C 78 % 1012,5 hPa 0,0 l/m 0,5 km/h (0 Bft) NO 45 -6,9 C -4,0 C 0,0 km/h (0 Bft)
01.01.2014 20:30 -3,8 C 79 % 1012,5 hPa 0,0 l/m 0,2 km/h (0 Bft) NO 45 -6,9 C -4,1 C 0,0 km/h (0 Bft)
01.01.2014 20:35 -3,9 C 79 % 1012,5 hPa 0,0 l/m 0,0 km/h (0 Bft) NO 45 -7,0 C -4,2 C 0,0 km/h (0 Bft)
01.01.2014 20:40 -3,8 C 79 % 1012,5 hPa 0,0 l/m 0,2 km/h (0 Bft) NO 45 -6,9 C -4,3 C 2,1 km/h (1 Bft)
01.01.2014 20:45 -4,1 C 79 % 1012,4 hPa 0,0 l/m 0,5 km/h (0 Bft) NO 45 -7,2 C -4,2 C 0,0 km/h (0 Bft)
01.01.2014 20:50 -3,1 C 79 % 1012,4 hPa 0,0 l/m 1,3 km/h (1 Bft) SO 135 -6,2 C -3,9 C 1,9 km/h (1 Bft)
01.01.2014 20:55 -3,7 C 79 % 1012,4 hPa 0,0 l/m 0,8 km/h (0 Bft) NO 45 -6,8 C -3,9 C 0,0 km/h (0 Bft)
01.01.2014 21:00 -4,1 C 79 % 1012,4 hPa 0,0 l/m 0,2 km/h (0 Bft) NO 45 -7,2 C -4,2 C 0,0 km/h (0 Bft)
01.01.2014 21:05 -4,2 C 79 % 1012,2 hPa 0,0 l/m 0,0 km/h (0 Bft) NO 45 -7,3 C -4,4 C 0,0 km/h (0 Bft)
01.01.2014 21:10 -4,1 C 79 % 1012,2 hPa 0,0 l/m 0,0 km/h (0 Bft) O-SO 112 -7,2 C -4,5 C 0,0 km/h (0 Bft)
01.01.2014 21:15 -3,3 C 79 % 1012,2 hPa 0,0 l/m 0,5 km/h (0 Bft) O-SO 112 -6,4 C -4,3 C 1,9 km/h (1 Bft)
01.01.2014 21:20 -3,5 C 79 % 1012,2 hPa 0,0 l/m 0,6 km/h (0 Bft) NO 45 -6,6 C -3,9 C 0,0 km/h (0 Bft)
01.01.2014 21:25 -3,9 C 79 % 1012,1 hPa 0,0 l/m 0,5 km/h (0 Bft) SO 135 -7,0 C -3,9 C 0,0 km/h (0 Bft)
01.01.2014 21:30 -4,1 C 79 % 1012,1 hPa 0,0 l/m 0,2 km/h (0 Bft) NO 45 -7,2 C -4,0 C 1,9 km/h (1 Bft)
01.01.2014 21:35 -4,1 C 79 % 1012,1 hPa 0,0 l/m 0,5 km/h (0 Bft) NO 45 -7,2 C -4,0 C 0,0 km/h (0 Bft)
01.01.2014 21:40 -4,0 C 80 % 1012,1 hPa 0,0 l/m 0,5 km/h (0 Bft) O-SO 112 -6,9 C -3,8 C 3,2 km/h (1 Bft)
01.01.2014 21:45 -3,5 C 80 % 1011,8 hPa 0,0 l/m 0,8 km/h (0 Bft) S 180 -6,4 C -3,5 C 2,4 km/h (1 Bft)
01.01.2014 21:50 -3,7 C 80 % 1011,8 hPa 0,0 l/m 1,0 km/h (0 Bft) O-NO 67 -6,6 C -3,3 C 1,8 km/h (1 Bft)
01.01.2014 21:55 -3,7 C 80 % 1011,8 hPa 0,0 l/m 0,3 km/h (0 Bft) O-NO 67 -6,6 C -3,4 C 0,0 km/h (0 Bft)
01.01.2014 22:00 -3,8 C 80 % 1011,8 hPa 0,0 l/m 0,0 km/h (0 Bft) O-NO 67 -6,7 C -3,5 C 0,0 km/h (0 Bft)
01.01.2014 22:05 -3,8 C 80 % 1011,4 hPa 0,0 l/m 0,2 km/h (0 Bft) O-NO 67 -6,7 C -3,5 C 0,0 km/h (0 Bft)
01.01.2014 22:10 -3,5 C 80 % 1011,4 hPa 0,0 l/m 0,2 km/h (0 Bft) O-NO 67 -6,4 C -3,6 C 0,0 km/h (0 Bft)
01.01.2014 22:15 -3,5 C 80 % 1011,4 hPa 0,0 l/m 0,0 km/h (0 Bft) O 90 -6,4 C -3,6 C 0,0 km/h (0 Bft)
01.01.2014 22:20 -3,5 C 79 % 1011,4 hPa 0,0 l/m 0,0 km/h (0 Bft) O 90 -6,6 C -3,6 C 0,0 km/h (0 Bft)
01.01.2014 22:25 -3,7 C 79 % 1011,1 hPa 0,0 l/m 0,0 km/h (0 Bft) O-NO 67 -6,8 C -3,7 C 0,0 km/h (0 Bft)
01.01.2014 22:30 -3,3 C 79 % 1011,1 hPa 0,0 l/m 0,6 km/h (0 Bft) N-NW 337 -6,4 C -3,5 C 2,9 km/h (1 Bft)
01.01.2014 22:35 -3,4 C 79 % 1011,1 hPa 0,0 l/m 0,8 km/h (0 Bft) NO 45 -6,5 C -3,5 C 0,0 km/h (0 Bft)
01.01.2014 22:40 -3,8 C 79 % 1011,1 hPa 0,0 l/m 0,3 km/h (0 Bft) NO 45 -6,9 C -3,5 C 0,0 km/h (0 Bft)
01.01.2014 22:45 -3,8 C 79 % 1010,9 hPa 0,0 l/m 0,0 km/h (0 Bft) NO 45 -6,9 C -3,8 C 0,0 km/h (0 Bft)
01.01.2014 22:50 -4,0 C 79 % 1010,9 hPa 0,0 l/m 0,2 km/h (0 Bft) N-NO 22 -7,1 C -3,9 C 2,1 km/h (1 Bft)
01.01.2014 22:55 -2,9 C 80 % 1010,9 hPa 0,0 l/m 1,4 km/h (1 Bft) O 90 -5,9 C -3,8 C 3,1 km/h (1 Bft)
01.01.2014 23:00 -2,8 C 79 % 1010,9 hPa 0,0 l/m 1,4 km/h (1 Bft) NO 45 -5,9 C -3,4 C 0,0 km/h (0 Bft)
01.01.2014 23:05 -3,1 C 78 % 1010,7 hPa 0,0 l/m 0,6 km/h (0 Bft) O-SO 112 -6,4 C -3,3 C 3,4 km/h (1 Bft)
01.01.2014 23:10 -3,2 C 78 % 1010,7 hPa 0,0 l/m 1,3 km/h (1 Bft) O-SO 112 -6,5 C -2,9 C 0,0 km/h (0 Bft)
01.01.2014 23:15 -3,7 C 77 % 1010,7 hPa 0,0 l/m 1,3 km/h (1 Bft) O-SO 112 -7,1 C -3,0 C 0,0 km/h (0 Bft)
01.01.2014 23:20 -4,0 C 78 % 1010,7 hPa 0,0 l/m 0,2 km/h (0 Bft) W-NW 292 -7,3 C -3,3 C 2,9 km/h (1 Bft)
01.01.2014 23:25 -4,1 C 78 % 1010,6 hPa 0,0 l/m 0,8 km/h (0 Bft) N 360 -7,4 C -3,5 C 1,6 km/h (1 Bft)
01.01.2014 23:30 -3,7 C 78 % 1010,6 hPa 0,0 l/m 1,3 km/h (1 Bft) N-NO 22 -7,0 C -3,5 C 3,1 km/h (1 Bft)
01.01.2014 23:35 -3,3 C 79 % 1010,6 hPa 0,0 l/m 1,1 km/h (1 Bft) NO 45 -6,4 C -3,6 C 1,9 km/h (1 Bft)
01.01.2014 23:40 -2,9 C 79 % 1010,6 hPa 0,0 l/m 1,1 km/h (1 Bft) NO 45 -6,0 C -3,2 C 0,0 km/h (0 Bft)
01.01.2014 23:45 -3,1 C 78 % 1010,4 hPa 0,0 l/m 0,6 km/h (0 Bft) S-SO 157 -6,4 C -2,8 C 0,0 km/h (0 Bft)
01.01.2014 23:50 -3,3 C 78 % 1010,4 hPa 0,0 l/m 0,6 km/h (0 Bft) O-SO 112 -6,6 C -3,0 C 0,0 km/h (0 Bft)
01.01.2014 23:55 -3,2 C 78 % 1010,4 hPa 0,0 l/m 0,6 km/h (0 Bft) O-SO 112 -6,5 C -3,0 C 0,0 km/h (0 Bft)
_ Min-Zeit 00:45 04:35 23:55 - 22:45 - - 03:15 03:25 23:55
Minimum _ -6,2 C 50 % 1010,4 hPa - 0,0 km/h (0 Bft) - - -11,5 C -7,9 C 0,0 km/h (0 Bft)
_ Max-Zeit 14:20 22:55 11:00 23:55 03:30 - - 12:50 14:00 03:30
Maximum _ 5,4 C 80 % 1017,8 hPa 0,0 l/m 9,3 km/h
S (2 Bft)
- - -2,3 C 8,3 C 18,8 km/h
S (3 Bft)
Durchschnitt _ -1,1 C 66 % 1015,0 hPa #0,0 l/m 1,8 km/h (1 Bft) NO - -6,7 C -1,2 C 2,3 km/h (1 Bft)